Voltar ao catálogo

FENGYUN 1C DEB

AtivoSSO
NORAD 30365·DEBRIS·🇨🇳 China

Lançado May 10, 1999 de Taiyuan Satellite Launch Center

Loading…

Próximas Passagens (próximas 24 horas)

TLE

AtualizadoSource: Space-Track

Época: Sep 14, 2026, 11:36 UTC

1 30365U 99025ACC 26257.48374181  .00000382  00000-0  17541-3 0  9994
2 30365  98.6363 249.8741 0167374  35.9309 114.0409 14.19522481 15053

Acompanhe FENGYUN 1C DEB em tempo real com AllMySat

Download on the App Store